STARLINK-32556, 61858

Orbit data source: Space-Track

STARLINK-32556, 61858 is a payload satellite owned by SpaceX/Seattle (US) in LEO that was launched on Thu, 07 Nov 2024 UTC via an FALCON 9 launch vehicle from the Air Force Eastern Test Range (AFETR). Payload-class satellites include a variety of spacecraft equipped with specific instruments for various scientific and technological missions. These include communications satellites like Starlink; space stations such as the ISS; scientific satellites like the Hubble; Earth observation satellites from companies like Planet Labs, Umbra, and HawkEye 360; GPS; miniature CubeSats for education and research; and military/defense satellites.

Loading next visibility...
Identifier
61858, 2024-202P
Orbit
LEO
Country
Flag of USUS
Related business
Manufacturer
SpaceX/Seattle
Mission
Operational Commercial Communications
Bus & Motor
STARLINK V2M, Unknown motor
Mass
730 kg wet, ~700 kg dry
Launch date (UTC)
2024-11-07 (1 year ago)
Launch vehicle
FALCON 9
Launch site
Air Force Eastern Test Range (AFETR)
Object type
Payload
Rocket body
Debris
Shape & HBR
Box + 2 Pan, 17.7 m
Radar Cross Section
33.884 m², Large (>1 m²)

Expand to show TLE details & history
Last TLE update: 14 hours ago

TLE from 14 hours ago
0 STARLINK-32556
1 61858U 24202P   25308.05077328  .00000984  00000-0  45284-4 0  9996
2 61858  43.0013 227.4627 0001073 266.9292  93.1437 15.27580183 56129
Epoch: 2025-11-04T01:13Z
TLE epoch observation values (Epoch: 2025-11-04T01:13:06.811Z)
Latitude
-0.00001°
Longitude
165.64096°
Altitude
482.865 km
Speed
7.626 km/s
True Right ascension
15h 09m 51s
True Declination
0° 00' 00"
Sunlit
Object was in daylight at epoch
Visualization orbit readout
Latitude
Unknown
Longitude
Unknown
Altitude
Unknown
Speed
Unknown
Apparent Right ascension
Unknown
Apparent Declination
Unknown
Sunlit
N/A
Visualization observer readout
Local Sidereal Time
11:01:13
Azimuth
Unknown
Elevation
Unknown
Doppler factor
Unknown
Orbital elements
Apogee altitude
485.73 km
Perigee altitude
484.257 km
Semi-major axis
6,863.131 km
Eccentricity
0.00011
Inclination
43.0013°
RAAN
227.4627°
Arg. of periapsis
266.9292°
True anomaly
93.15598°
Mean anomaly
93.1437°
Eccentric anomaly
93.14984°
Mean motion
3.81733 °/min
Orbital period
94.31 mins
BSTAR
0.000045284
Loading maneuver chart data...
Computing Atmospheric mass density...
Loading historical data...
Loading historical data...
Loading historical data...
Loading historical data...
Loading historical data...
Loading historical data...
Loading historical data...

Documentation

Showing up to 5 results
|